Home   Weather   Viña del Mar   Past weeks

Flag for Chile Past Weather in Viña del Mar, Chile — Yesterday and Last 2 Weeks

Now
45 °F

Passing clouds.


Feels Like: 43 °F
Forecast: 52 / 72 °F
Wind: 3 mph from East

Location: Pudahuel

Current Time: Apr 29, 2017 at 8:40:15 am

Latest Report: Apr 29, 2017 at 8:00 am


Visibility: N/A

Pressure: 29.98 "Hg

Humidity: 61%

Dew Point: 32 °F

Location of Viña del MarLocation

Past Weather in Viña del Mar — Graph

°F

Viña del Mar Temperature Yesterday

Maximum temperature yesterday: 82 °F (at 5:00 pm)
Minimum temperature yesterday: 41 °F (at 7:00 am)
Average temperature yesterday: 60 °F

High & Low Weather Summary for the Past Weeks

 TemperatureHumidityPressure
High82 °F (Apr 28, 5:00 pm)94% (Apr 20, 7:00 am)30.21 "Hg (Apr 20, 7:00 am)
Low37 °F (Apr 27, 7:00 am)14% (Apr 27, 5:00 pm)29.86 "Hg (Apr 17, 5:00 pm)
Average60 °F62%30.03 "Hg
* Reported Apr 14 7:00 am — Apr 29 7:00 am, Viña del Mar, Weather by CustomWeather, © 2017

Note: Actual official high and low records may vary slightly from our data, if they occured in-between our weather recording intervals... More about our weather records

Advertising

Viña del Mar Weather History for the Previous 24 Hours

Scroll right to see more
 ConditionsComfort  
Time TempWeatherWind HumidityBarometerVisibility
7:00 am
Sat, Apr 29
41 °FClear.2 mph70%29.98 "Hg5 mi
6:00 am46 °FClear.2 mph57%29.98 "Hg4 mi
5:00 am46 °FClear.2 mph62%29.98 "Hg4 mi
4:00 am46 °FClear.2 mph62%29.98 "Hg5 mi
3:00 am52 °FClear.1 mph58%30.01 "Hg10 mi
2:00 am54 °FClear.2 mph47%30.01 "Hg10 mi
1:00 am54 °FClear.1 mph51%30.01 "Hg10 mi
12:00 am54 °FPassing clouds.5 mph47%30.04 "HgN/A
11:00 pm
Fri, Apr 28
59 °FClear.2 mph39%30.04 "Hg10 mi
10:00 pm63 °FClear.2 mph37%30.01 "Hg10 mi
9:00 pm66 °FClear.6 mph32%30.01 "Hg10 mi
8:00 pm72 °FClear.9 mph29%30.01 "Hg10 mi
7:00 pm77 °FSunny.12 mph24%29.98 "Hg10 mi
6:00 pm81 °FSunny.13 mph17%29.98 "Hg10 mi
5:00 pm82 °FSunny.12 mph17%29.98 "Hg10 mi
4:00 pm81 °FSunny.10 mph14%29.98 "Hg10 mi
3:00 pm77 °FSunny.2 mph17%30.01 "Hg10 mi
2:00 pm75 °FSunny.2 mph19%30.04 "Hg10 mi
1:00 pm70 °FPassing clouds.3 mph25%30.07 "HgN/A
12:00 pm63 °FSunny.2 mph30%30.07 "Hg10 mi
11:00 am57 °FSunny.2 mph39%30.09 "Hg10 mi
10:00 am48 °FClear.1 mph54%30.09 "Hg5 mi
9:00 am41 °FClear.3 mph66%30.09 "Hg5 mi
8:00 am43 °FClear.3 mph57%30.09 "Hg4 mi
Weather by CustomWeather, © 2017

See weather overviewHow to use our weather pages